Manhattan, KS

8:53 PM CST on January 18, 2018 (GMT -0600)
Manhattan Regional

Weather History for KMHK - August, 2013

Change the Weather History Date:

Sunday, August 25, 2013

  Actual Average Record
Temperature  
Mean Temperature 83 °F 76 °F  
Max Temperature 95 °F 88 °F 105 °F (2003)
Min Temperature 70 °F 63 °F 51 °F (2015)
Degree Days  
Heating Degree Days 0 0  
Month to date heating degree days 0 0  
Since 1 June heating degree days 12 12  
Since 1 July heating degree days 3 1  
Cooling Degree Days 18 11  
Month to date cooling degree days 268 319  
Year to date cooling degree days 1115 1125  
Since 1 June cooling degree days 979 1025  
Growing Degree Days 32 (Base 50)    
Moisture  
Dew Point 71 °F    
Average Humidity 71    
Maximum Humidity 93    
Minimum Humidity 49    
Precipitation  
Precipitation 0.00 in 0.16 in 2.14 in (2005)
Month to date precipitation 4.10 3.31  
Year to date precipitation 21.22 23.57  
Sea Level Pressure  
Sea Level Pressure 30.09 in    
Wind  
Wind Speed 7 mph (South)    
Max Wind Speed 17 mph    
Max Gust Speed 21 mph    
Visibility 10 miles    
Events      
T = Trace of Precipitation, MM = Missing Value Source: NWS Daily Summary

Daily Weather History Graph

Daily Weather History Graph

Search for Another Location

Airport or City:

Trip Planner

Search our weather history database for the weather conditions in past years. The results will help you decide how hot, cold, wet, or windy it might be!

Date:

Astronomy

Aug. 25, 2013 Rise Set
Actual Time 6:49 AM CDT 8:07 PM CDT
Civil Twilight 6:21 AM CDT 8:35 PM CDT
Nautical Twilight 5:48 AM CDT 9:08 PM CDT
Astronomical Twilight 5:13 AM CDT 9:43 PM CDT
Moon 10:42 PM CDT (8/25) 11:49 AM CDT (8/25)
Length of Visible Light 14h 13m
Length of Day
13h 18m
Waning Gibbous, 75% of the Moon is Illuminated
Aug 25
Waning Gibbous
Aug 28
Last Quarter
Sep 5
New
Sep 12
First Quarter
Sep 19
Full

Hourly Weather History & Observations

Time (CDT) Temp. Heat Index Dew Point Humidity Pressure Visibility Wind Dir Wind Speed Gust Speed Precip Events Conditions
12:52 AM 77.0 °F - 70.0 °F 79% 30.07 in 10.0 mi South 3.5 mph - N/A   Clear
1:52 AM 77.0 °F - 70.0 °F 79% 30.07 in 10.0 mi South 3.5 mph - N/A   Clear
2:52 AM 77.0 °F - 70.0 °F 79% 30.08 in 10.0 mi South 6.9 mph - N/A   Clear
3:52 AM 73.9 °F - 69.1 °F 85% 30.09 in 9.0 mi SSW 4.6 mph - N/A   Clear
4:52 AM 73.0 °F - 69.1 °F 87% 30.10 in 8.0 mi Calm Calm - N/A   Clear
5:52 AM 72.0 °F - 69.1 °F 91% 30.11 in 8.0 mi Calm Calm - N/A   Clear
6:52 AM 71.1 °F - 68.0 °F 90% 30.13 in 6.0 mi Calm Calm - N/A   Clear
7:52 AM 75.9 °F - 70.0 °F 82% 30.14 in 8.0 mi South 3.5 mph - N/A   Clear
8:52 AM 80.1 °F 83.2 °F 70.0 °F 71% 30.14 in 9.0 mi South 6.9 mph - N/A   Clear
9:52 AM 84.0 °F 89.0 °F 71.1 °F 65% 30.13 in 10.0 mi SSW 10.4 mph - N/A   Clear
10:52 AM 87.1 °F 93.6 °F 72.0 °F 61% 30.13 in 10.0 mi SW 16.1 mph 20.7 mph N/A   Clear
11:52 AM 89.1 °F 96.0 °F 72.0 °F 57% 30.12 in 10.0 mi South 11.5 mph 19.6 mph N/A   Clear
12:52 PM 91.9 °F 99.5 °F 72.0 °F 52% 30.09 in 10.0 mi SSW 13.8 mph - N/A   Clear
1:52 PM 93.0 °F 100.7 °F 72.0 °F 50% 30.08 in 10.0 mi SSW 12.7 mph 18.4 mph N/A   Clear
2:52 PM 93.9 °F 102.1 °F 72.0 °F 49% 30.07 in 10.0 mi South 10.4 mph 18.4 mph N/A   Clear
3:52 PM 93.9 °F 102.1 °F 72.0 °F 49% 30.06 in 10.0 mi South 11.5 mph - N/A   Clear
4:52 PM 93.9 °F 100.8 °F 71.1 °F 47% 30.05 in 10.0 mi South 9.2 mph - N/A   Clear
5:52 PM 93.0 °F 100.1 °F 71.1 °F 49% 30.05 in 10.0 mi South 8.1 mph - N/A   Clear
6:52 PM 90.0 °F 95.4 °F 70.0 °F 52% 30.05 in 10.0 mi South 8.1 mph - N/A   Clear
7:52 PM 84.9 °F 90.1 °F 71.1 °F 63% 30.05 in 10.0 mi South 5.8 mph - N/A   Clear
8:52 PM 82.0 °F 85.9 °F 70.0 °F 67% 30.07 in 10.0 mi South 5.8 mph - N/A   Clear
9:52 PM 81.0 °F 84.4 °F 70.0 °F 69% 30.08 in 10.0 mi South 5.8 mph - N/A   Clear
10:52 PM 81.0 °F 84.4 °F 70.0 °F 69% 30.10 in 10.0 mi South 6.9 mph - N/A   Clear
11:52 PM 80.1 °F 83.6 °F 71.1 °F 74% 30.10 in 10.0 mi South 6.9 mph - N/A   Clear